VOZ942 YBBN-YSSY

Flight info

Callsign VOZ942
Flight time 1h 6m
Altitude 36000
Route BN H91 IGDAM H652 TESAT
Aircraft B38M/M-SDE1FGHILORVWXY/HB1

Departure

Time 2026-04-23 00:52
Airport Brisbane International Airport (YBBN)

Arrival

Time 2026-04-23 01:58
Airport Sydney Kingsford Smith International Airport (YSSY)
Time Latitude Longitude Altitude Speed Heading
2026-04-22 23:50 -27.38843 153.12006 20 ft 0 kts 294°
2026-04-23 00:32 -27.38848 153.12020 23 ft 2 kts 297°
2026-04-23 00:32 -27.38856 153.12037 24 ft 2 kts 302°
2026-04-23 00:32 -27.38866 153.12052 22 ft 2 kts 322°
2026-04-23 00:32 -27.38881 153.12058 22 ft 2 kts 356°
2026-04-23 00:33 -27.38898 153.12058 20 ft 2 kts 25°
2026-04-23 00:33 -27.38910 153.12046 20 ft 2 kts 50°
2026-04-23 00:33 -27.38919 153.12035 20 ft 1 kts 50°
2026-04-23 00:33 -27.38920 153.12033 20 ft 0 kts 50°
2026-04-23 00:44 -27.38900 153.12062 20 ft 11 kts 57°
2026-04-23 00:45 -27.38886 153.12181 21 ft 18 kts 105°
2026-04-23 00:45 -27.38823 153.12289 20 ft 18 kts 27°
2026-04-23 00:45 -27.38704 153.12358 22 ft 20 kts 26°
2026-04-23 00:45 -27.38574 153.12433 22 ft 22 kts 27°
2026-04-23 00:46 -27.38431 153.12515 22 ft 24 kts 27°
2026-04-23 00:46 -27.38275 153.12602 20 ft 26 kts 26°
2026-04-23 00:46 -27.38111 153.12697 20 ft 27 kts 26°
2026-04-23 00:46 -27.37936 153.12797 20 ft 29 kts 27°
2026-04-23 00:47 -27.37753 153.12900 22 ft 31 kts 26°
2026-04-23 00:47 -27.37558 153.13012 20 ft 32 kts 27°
2026-04-23 00:47 -27.37360 153.13126 21 ft 22 kts 27°
2026-04-23 00:47 -27.37300 153.13160 20 ft 6 kts 27°
2026-04-23 00:48 -27.37296 153.13163 20 ft 1 kts 28°
2026-04-23 00:48 -27.37278 153.13174 21 ft 6 kts 32°
2026-04-23 00:48 -27.37265 153.13220 20 ft 7 kts 107°
2026-04-23 00:48 -27.37293 153.13279 20 ft 10 kts 118°
2026-04-23 00:49 -27.37321 153.13336 21 ft 9 kts 115°
2026-04-23 00:49 -27.37325 153.13346 21 ft 0 kts 116°
2026-04-23 00:49 -27.37326 153.13348 21 ft 1 kts 116°
2026-04-23 00:49 -27.37332 153.13361 22 ft 6 kts 117°
2026-04-23 00:50 -27.37398 153.13425 25 ft 17 kts 154°
2026-04-23 00:50 -27.37478 153.13420 26 ft 6 kts 208°
2026-04-23 00:50 -27.37493 153.13411 25 ft 0 kts 206°
2026-04-23 00:50 -27.37512 153.13401 25 ft 10 kts 206°
2026-04-23 00:51 -27.37691 153.13300 22 ft 57 kts 207°
2026-04-23 00:51 -27.38212 153.13001 23 ft 109 kts 207°
2026-04-23 00:51 -27.39024 153.12542 21 ft 151 kts 207°
2026-04-23 00:51 -27.40050 153.11955 167 ft 170 kts 205°
2026-04-23 00:52 -27.40981 153.11377 1103 ft 141 kts 205°
2026-04-23 00:52 -27.41947 153.11005 1352 ft 161 kts 182°
2026-04-23 00:52 -27.43117 153.11125 1722 ft 174 kts 174°
2026-04-23 00:52 -27.44368 153.11230 2322 ft 189 kts 175°
2026-04-23 00:53 -27.45708 153.11344 3041 ft 195 kts 175°
2026-04-23 00:53 -27.47124 153.11346 3606 ft 217 kts 182°
2026-04-23 00:53 -27.48623 153.11137 4383 ft 221 kts 187°
2026-04-23 00:53 -27.50179 153.10854 5217 ft 230 kts 186°
2026-04-23 00:54 -27.51832 153.10582 5738 ft 257 kts 185°
2026-04-23 00:54 -27.53626 153.10290 6943 ft 259 kts 187°
2026-04-23 00:54 -27.55421 153.09939 8041 ft 266 kts 187°
2026-04-23 00:54 -27.57262 153.09565 9060 ft 270 kts 188°
2026-04-23 00:55 -27.59130 153.09179 10089 ft 277 kts 188°
2026-04-23 00:55 -27.61072 153.08773 10751 ft 293 kts 188°
2026-04-23 00:55 -27.63145 153.08336 11297 ft 311 kts 188°
2026-04-23 00:55 -27.65307 153.07881 11990 ft 321 kts 188°
2026-04-23 00:56 -27.67522 153.07413 12905 ft 324 kts 188°
2026-04-23 00:56 -27.69755 153.06941 13764 ft 329 kts 188°
2026-04-23 00:56 -27.72023 153.06463 14545 ft 334 kts 188°
2026-04-23 00:56 -27.74321 153.05977 15317 ft 337 kts 188°
2026-04-23 00:57 -27.76633 153.05487 16066 ft 341 kts 188°
2026-04-23 00:57 -27.78978 153.04992 16798 ft 344 kts 188°
2026-04-23 00:57 -27.81343 153.04483 17532 ft 348 kts 190°
2026-04-23 00:57 -27.83660 153.03583 18236 ft 354 kts 198°
2026-04-23 00:58 -27.85964 153.02569 18871 ft 358 kts 198°
2026-04-23 00:58 -27.88297 153.01547 19489 ft 360 kts 199°
2026-04-23 00:58 -27.90641 153.00521 20134 ft 362 kts 199°
2026-04-23 00:58 -27.92999 152.99489 20771 ft 364 kts 200°
2026-04-23 00:59 -27.95332 152.98466 21372 ft 366 kts 200°
2026-04-23 00:59 -27.97719 152.97419 21964 ft 369 kts 201°
2026-04-23 00:59 -28.00123 152.96365 22546 ft 372 kts 201°
2026-04-23 00:59 -28.02547 152.95301 23109 ft 375 kts 202°
2026-04-23 01:00 -28.04988 152.94230 23663 ft 378 kts 202°
2026-04-23 01:00 -28.07454 152.93148 24135 ft 381 kts 202°
2026-04-23 01:00 -28.09933 152.92051 24596 ft 384 kts 202°
2026-04-23 01:00 -28.12426 152.90944 25049 ft 386 kts 202°
2026-04-23 01:01 -28.14933 152.89830 25499 ft 389 kts 202°
2026-04-23 01:01 -28.17456 152.88709 25934 ft 391 kts 203°
2026-04-23 01:01 -28.19994 152.87580 26438 ft 391 kts 203°
2026-04-23 01:01 -28.22503 152.86464 27174 ft 385 kts 203°
2026-04-23 01:02 -28.24926 152.85386 27680 ft 385 kts 203°
2026-04-23 01:02 -28.26466 152.84700 27927 ft 387 kts 203°
2026-04-23 01:02 -28.28982 152.83580 28321 ft 389 kts 203°
2026-04-23 01:02 -28.31509 152.82454 28732 ft 391 kts 204°
2026-04-23 01:03 -28.34053 152.81319 29117 ft 394 kts 204°
2026-04-23 01:03 -28.36612 152.80178 29504 ft 397 kts 204°
2026-04-23 01:03 -28.39189 152.79027 29862 ft 399 kts 204°
2026-04-23 01:03 -28.41785 152.77869 30241 ft 402 kts 204°
2026-04-23 01:04 -28.44395 152.76703 30545 ft 405 kts 204°
2026-04-23 01:04 -28.47023 152.75529 30852 ft 407 kts 204°
2026-04-23 01:04 -28.52278 152.73177 31476 ft 410 kts 204°
2026-04-23 01:05 -28.54942 152.71984 31793 ft 412 kts 204°
2026-04-23 01:05 -28.57614 152.70787 32088 ft 414 kts 204°
2026-04-23 01:05 -28.60302 152.69582 32391 ft 416 kts 204°
2026-04-23 01:05 -28.63004 152.68371 32685 ft 418 kts 204°
2026-04-23 01:06 -28.65712 152.67156 32992 ft 420 kts 204°
2026-04-23 01:06 -28.68434 152.65933 33278 ft 422 kts 204°
2026-04-23 01:06 -28.71168 152.64705 33555 ft 424 kts 204°
2026-04-23 01:06 -28.73921 152.63468 33852 ft 425 kts 204°
2026-04-23 01:07 -28.76606 152.62260 34124 ft 427 kts 204°
2026-04-23 01:07 -28.79373 152.61015 34394 ft 429 kts 204°
2026-04-23 01:07 -28.82157 152.59762 34635 ft 431 kts 204°
2026-04-23 01:07 -28.84928 152.58458 34861 ft 431 kts 209°
2026-04-23 01:08 -28.87564 152.56816 35092 ft 432 kts 210°
2026-04-23 01:08 -28.90224 152.55200 35299 ft 434 kts 210°
2026-04-23 01:08 -28.92904 152.53594 35540 ft 436 kts 210°
2026-04-23 01:08 -28.95593 152.51994 35750 ft 437 kts 210°
2026-04-23 01:09 -28.98299 152.50389 35947 ft 439 kts 210°
2026-04-23 01:09 -29.01015 152.48778 36136 ft 440 kts 210°
2026-04-23 01:09 -29.03734 152.47164 36296 ft 437 kts 210°
2026-04-23 01:09 -29.06408 152.45577 36331 ft 430 kts 210°
2026-04-23 01:10 -29.11618 152.42481 36309 ft 423 kts 210°
2026-04-23 01:10 -29.16864 152.39360 36312 ft 429 kts 210°
2026-04-23 01:11 -29.22214 152.36173 36312 ft 435 kts 210°
2026-04-23 01:11 -29.27612 152.32954 36320 ft 435 kts 210°
2026-04-23 01:12 -29.32976 152.29751 36320 ft 435 kts 210°
2026-04-23 01:12 -29.38302 152.26567 36325 ft 435 kts 209°
2026-04-23 01:13 -29.43668 152.23356 36319 ft 434 kts 209°
2026-04-23 01:13 -29.49021 152.20148 36321 ft 434 kts 209°
2026-04-23 01:14 -29.54374 152.16936 36316 ft 434 kts 209°
2026-04-23 01:14 -29.59739 152.13714 36320 ft 437 kts 209°
2026-04-23 01:15 -29.65146 152.10463 36317 ft 439 kts 209°
2026-04-23 01:15 -29.70641 152.07425 36302 ft 440 kts 197°
2026-04-23 01:16 -29.76618 152.05814 36319 ft 442 kts 195°
2026-04-23 01:16 -29.82613 152.04219 36324 ft 442 kts 195°
2026-04-23 01:17 -29.88527 152.02671 36326 ft 442 kts 195°
2026-04-23 01:17 -29.94516 152.01104 36325 ft 442 kts 195°
2026-04-23 01:18 -30.00510 151.99536 36331 ft 442 kts 195°
2026-04-23 01:18 -30.06461 151.97975 36330 ft 442 kts 195°
2026-04-23 01:19 -30.12492 151.96393 36334 ft 441 kts 195°
2026-04-23 01:19 -30.18479 151.94820 36335 ft 441 kts 195°
2026-04-23 01:20 -30.24466 151.93245 36343 ft 441 kts 195°
2026-04-23 01:20 -30.30406 151.91680 36342 ft 441 kts 195°
2026-04-23 01:21 -30.36165 151.89362 36343 ft 439 kts 203°
2026-04-23 01:21 -30.41838 151.86744 36344 ft 439 kts 203°
2026-04-23 01:22 -30.47505 151.84109 36346 ft 439 kts 203°
2026-04-23 01:22 -30.53167 151.81471 36345 ft 439 kts 203°
2026-04-23 01:23 -30.57872 151.79276 36342 ft 438 kts 203°
2026-04-23 01:23 -30.63529 151.76634 36347 ft 438 kts 203°
2026-04-23 01:24 -30.69189 151.73988 36345 ft 438 kts 203°
2026-04-23 01:24 -30.74839 151.71343 36346 ft 438 kts 203°
2026-04-23 01:25 -30.80498 151.68690 36346 ft 438 kts 203°
2026-04-23 01:25 -30.86147 151.66039 36348 ft 438 kts 203°
2026-04-23 01:26 -30.91798 151.63383 36347 ft 438 kts 203°
2026-04-23 01:26 -30.97439 151.60729 36348 ft 437 kts 202°
2026-04-23 01:27 -31.03078 151.58072 36353 ft 437 kts 203°
2026-04-23 01:27 -31.08721 151.55410 36355 ft 437 kts 203°
2026-04-23 01:28 -31.14364 151.52745 36356 ft 437 kts 202°
2026-04-23 01:28 -31.20004 151.50077 36358 ft 437 kts 202°
2026-04-23 01:29 -31.25640 151.47408 36358 ft 437 kts 202°
2026-04-23 01:29 -31.31281 151.44734 36364 ft 437 kts 202°
2026-04-23 01:30 -31.36882 151.42075 36369 ft 437 kts 202°
2026-04-23 01:30 -31.42563 151.39525 36365 ft 437 kts 201°
2026-04-23 01:31 -31.48246 151.36988 36366 ft 437 kts 201°
2026-04-23 01:31 -31.53929 151.34444 36366 ft 437 kts 201°
2026-04-23 01:32 -31.59611 151.31896 36366 ft 437 kts 201°
2026-04-23 01:32 -31.65295 151.29344 36369 ft 437 kts 201°
2026-04-23 01:33 -31.70969 151.26794 36365 ft 437 kts 201°
2026-04-23 01:33 -31.76649 151.24238 36367 ft 437 kts 201°
2026-04-23 01:34 -31.82326 151.21680 36363 ft 437 kts 201°
2026-04-23 01:34 -31.88001 151.19118 36369 ft 437 kts 201°
2026-04-23 01:35 -31.93675 151.16557 36372 ft 437 kts 201°
2026-04-23 01:35 -31.99357 151.14014 36373 ft 437 kts 201°
2026-04-23 01:36 -32.05032 151.11469 36367 ft 437 kts 201°
2026-04-23 01:36 -32.10709 151.08919 36371 ft 437 kts 201°
2026-04-23 01:37 -32.16391 151.06364 36376 ft 437 kts 201°
2026-04-23 01:37 -32.22029 151.03826 36383 ft 437 kts 201°
2026-04-23 01:38 -32.27706 151.01266 36377 ft 437 kts 201°
2026-04-23 01:38 -32.33375 150.98706 36381 ft 436 kts 201°
2026-04-23 01:39 -32.39052 150.96139 36275 ft 437 kts 201°
2026-04-23 01:39 -32.41882 150.94859 36034 ft 431 kts 201°
2026-04-23 01:39 -32.44656 150.93603 35796 ft 423 kts 201°
2026-04-23 01:40 -32.47398 150.92393 35566 ft 419 kts 197°
2026-04-23 01:40 -32.50249 150.91842 35313 ft 415 kts 181°
2026-04-23 01:40 -32.53127 150.92080 35099 ft 415 kts 175°
2026-04-23 01:40 -32.55998 150.92457 34782 ft 414 kts 174°
2026-04-23 01:41 -32.58842 150.92895 34328 ft 411 kts 174°
2026-04-23 01:41 -32.61657 150.93359 33806 ft 407 kts 173°
2026-04-23 01:41 -32.64448 150.93836 33179 ft 404 kts 173°
2026-04-23 01:41 -32.67231 150.94324 32534 ft 404 kts 173°
2026-04-23 01:42 -32.70008 150.94815 31899 ft 404 kts 173°
2026-04-23 01:42 -32.72792 150.95308 31297 ft 403 kts 172°
2026-04-23 01:42 -32.75566 150.95801 30699 ft 403 kts 172°
2026-04-23 01:42 -32.78335 150.96292 30049 ft 402 kts 172°
2026-04-23 01:43 -32.81102 150.96784 29366 ft 401 kts 172°
2026-04-23 01:43 -32.83853 150.97274 28693 ft 400 kts 172°
2026-04-23 01:43 -32.86609 150.97764 28034 ft 399 kts 172°
2026-04-23 01:43 -32.89355 150.98253 27400 ft 398 kts 172°
2026-04-23 01:44 -32.92091 150.98740 26733 ft 398 kts 172°
2026-04-23 01:44 -32.94839 150.99230 26019 ft 400 kts 172°
2026-04-23 01:44 -32.97594 150.99722 25325 ft 401 kts 172°
2026-04-23 01:44 -33.00361 151.00216 24645 ft 402 kts 172°
2026-04-23 01:45 -33.03123 151.00710 23985 ft 401 kts 171°
2026-04-23 01:45 -33.05850 151.01198 23142 ft 391 kts 171°
2026-04-23 01:45 -33.08521 151.01675 22196 ft 385 kts 171°
2026-04-23 01:45 -33.11155 151.02147 21242 ft 381 kts 171°
2026-04-23 01:46 -33.13771 151.02615 20212 ft 379 kts 170°
2026-04-23 01:46 -33.16364 151.03080 19212 ft 377 kts 170°
2026-04-23 01:46 -33.18952 151.03544 18175 ft 374 kts 170°
2026-04-23 01:46 -33.21514 151.04003 17086 ft 371 kts 170°
2026-04-23 01:47 -33.24062 151.04473 16019 ft 370 kts 169°
2026-04-23 01:47 -33.26595 151.04958 14981 ft 369 kts 169°
2026-04-23 01:47 -33.29128 151.05441 13944 ft 368 kts 169°
2026-04-23 01:47 -33.31657 151.05923 12827 ft 368 kts 169°
2026-04-23 01:48 -33.34180 151.06404 11744 ft 367 kts 169°
2026-04-23 01:48 -33.36669 151.06880 10702 ft 366 kts 169°
2026-04-23 01:48 -33.39205 151.07367 9796 ft 361 kts 169°
2026-04-23 01:48 -33.41597 151.07825 9656 ft 333 kts 169°
2026-04-23 01:49 -33.43761 151.08239 9653 ft 306 kts 169°
2026-04-23 01:49 -33.45782 151.08628 9632 ft 283 kts 169°
2026-04-23 01:49 -33.47700 151.08997 9581 ft 278 kts 169°
2026-04-23 01:49 -33.49607 151.09364 9241 ft 275 kts 169°
2026-04-23 01:50 -33.51477 151.09724 8803 ft 270 kts 169°
2026-04-23 01:50 -33.53324 151.10080 8380 ft 267 kts 168°
2026-04-23 01:50 -33.55150 151.10432 7949 ft 265 kts 169°
2026-04-23 01:50 -33.56958 151.10780 7520 ft 262 kts 169°
2026-04-23 01:51 -33.58750 151.11125 7107 ft 260 kts 169°
2026-04-23 01:51 -33.60555 151.11473 6676 ft 266 kts 169°
2026-04-23 01:51 -33.62406 151.11738 6227 ft 271 kts 173°
2026-04-23 01:51 -33.64280 151.11946 5766 ft 268 kts 172°
2026-04-23 01:52 -33.66123 151.12158 5336 ft 264 kts 172°
2026-04-23 01:52 -33.67939 151.12373 4891 ft 260 kts 173°
2026-04-23 01:52 -33.69731 151.12587 4430 ft 256 kts 173°
2026-04-23 01:52 -33.71486 151.12799 4012 ft 251 kts 172°
2026-04-23 01:53 -33.73185 151.13200 3587 ft 247 kts 166°
2026-04-23 01:53 -33.74831 151.13646 3388 ft 239 kts 167°
2026-04-23 01:53 -33.76455 151.14074 3385 ft 235 kts 166°
2026-04-23 01:53 -33.77984 151.14470 3399 ft 215 kts 166°
2026-04-23 01:54 -33.79425 151.14840 3239 ft 209 kts 166°
2026-04-23 01:54 -33.80807 151.15192 3027 ft 198 kts 166°
2026-04-23 01:54 -33.82122 151.15529 2814 ft 188 kts 167°
2026-04-23 01:54 -33.83359 151.15840 2565 ft 173 kts 167°
2026-04-23 01:55 -33.84492 151.16127 2310 ft 161 kts 167°
2026-04-23 01:55 -33.85561 151.16397 1964 ft 152 kts 165°
2026-04-23 01:55 -33.86576 151.16660 1781 ft 150 kts 166°
2026-04-23 01:55 -33.87597 151.16921 1594 ft 146 kts 166°
2026-04-23 01:56 -33.88553 151.17168 1390 ft 137 kts 165°
2026-04-23 01:56 -33.89471 151.17407 1210 ft 133 kts 164°
2026-04-23 01:56 -33.90367 151.17642 1025 ft 133 kts 166°
2026-04-23 01:56 -33.91275 151.17877 869 ft 133 kts 166°
2026-04-23 01:57 -33.92174 151.18109 649 ft 132 kts 167°
2026-04-23 01:57 -33.93064 151.18340 476 ft 131 kts 167°
2026-04-23 01:57 -33.93959 151.18572 314 ft 131 kts 166°
2026-04-23 01:57 -33.94857 151.18807 123 ft 135 kts 164°
2026-04-23 01:58 -33.95748 151.19040 29 ft 120 kts 166°
2026-04-23 01:58 -33.96339 151.19190 26 ft 53 kts 169°
2026-04-23 01:58 -33.96599 151.19216 23 ft 37 kts 192°
2026-04-23 01:58 -33.96708 151.19164 19 ft 0 kts 230°
2026-04-23 01:59 -33.96709 151.19164 19 ft 0 kts 230°
2026-04-23 01:59 -33.96711 151.19159 19 ft 2 kts 234°
2026-04-23 01:59 -33.96716 151.19115 20 ft 9 kts 285°
2026-04-23 01:59 -33.96712 151.19105 20 ft 2 kts 296°
2026-04-23 02:00 -33.96670 151.19073 20 ft 14 kts 345°
2026-04-23 02:00 -33.96531 151.19036 21 ft 26 kts 348°
2026-04-23 02:00 -33.96341 151.18987 26 ft 28 kts 348°
2026-04-23 02:00 -33.96144 151.18937 26 ft 30 kts 348°
2026-04-23 02:01 -33.95932 151.18881 28 ft 32 kts 348°
2026-04-23 02:01 -33.95708 151.18824 26 ft 34 kts 348°
2026-04-23 02:01 -33.95468 151.18762 25 ft 37 kts 348°
2026-04-23 02:01 -33.95233 151.18663 26 ft 37 kts 324°
2026-04-23 02:02 -33.95122 151.18409 28 ft 37 kts 252°
2026-04-23 02:02 -33.95160 151.18209 27 ft 21 kts 258°
2026-04-23 02:02 -33.95190 151.18028 28 ft 23 kts 271°
2026-04-23 02:02 -33.95094 151.17944 28 ft 17 kts 345°
2026-04-23 02:03 -33.94965 151.17909 29 ft 23 kts 348°
2026-04-23 02:03 -33.94776 151.17860 26 ft 33 kts 348°
2026-04-23 02:03 -33.94503 151.17791 27 ft 45 kts 348°
2026-04-23 02:03 -33.94215 151.17699 25 ft 39 kts 346°
2026-04-23 02:04 -33.94026 151.17643 25 ft 19 kts 347°
2026-04-23 02:04 -33.93893 151.17624 21 ft 12 kts 30°
2026-04-23 02:04 -33.93856 151.17719 22 ft 14 kts 72°
2026-04-23 02:04 -33.93778 151.17785 26 ft 18 kts 11°
2026-04-23 02:05 -33.93703 151.17802 33 ft 7 kts 10°
2026-04-23 02:05 -33.93682 151.17806 33 ft 2 kts 10°
2026-04-23 02:05 -33.93676 151.17807 33 ft 0 kts 10°
2026-04-23 02:05 -33.93671 151.17808 33 ft 4 kts 10°
2026-04-23 02:06 -33.93578 151.17827 33 ft 12 kts 10°
2026-04-23 02:06 -33.93518 151.17852 33 ft 5 kts 58°
2026-04-23 02:06 -33.93518 151.17875 33 ft 2 kts 95°
2026-04-23 02:06 -33.93519 151.17888 33 ft 2 kts 98°
2026-04-23 02:07 -33.93522 151.17907 33 ft 0 kts 100°